Location: Colonia Mina de C?rbuni
(46.1667°N, 22.7167°E)
Time: 10:13:10
(UTC+00:00)

BlueWalker 3 - Pass Details

Date: 06 March 2024
Orbit: 485 x 496 km, 53.2° (Epoch: 12 April)

Event Time Altitude Azimuth Distance (km) Brightness Sun altitude
Rises 17:41:51 0° 293° (WNW) 2,558 7.1 -14.4°
Reaches altitude 10° 17:44:21 10° 279° (W) 1,672 6.0 -14.9°
Maximum altitude 17:47:20 22° 226° (SW) 1,091 4.1 -15.4°
Drops below altitude 10° 17:50:17 10° 174° (S) 1,661 4.4 -15.9°
Enters shadow 17:51:09 - 167° (SSE) 1,948 4.7 -16.0°
